Current Weather Conditions: station 63106

sailwx.info

Last reported at 2019-Sep-02 22:03 UTC.
Time now 2020-Feb-19 00:58 UTC

Location: N 61°00' E 001°42'.
View on Google Maps.

See reports from other nearby stations

  
Tides and Currents Weather Stations Pressure Air Temp Water Temp Dewpoint Dewpoint Depression Visibility Wind Speed Wind Dir Waves Ship Positions
date/time (UTC)wind fromknots sea level pressurealtimeterstation pressurevisibilityair tempwater tempwave heightnotes
2020-Feb-18 23:00 250 13 10.8 5.8 3.6
2020-Feb-18 22:00 250 13 10.8 5.4 3.9
2020-Feb-18 21:00 250 14 10.8 5.4 3.7
2020-Feb-18 20:00 250 13 10.8 5.6 4.0
2020-Feb-18 19:00 260 17 10.8 5.3 3.8
2020-Feb-18 18:00 250 14 10.8 4.2 4.1
2020-Feb-18 17:00 260 13 10.8 4.1 4.1
2020-Feb-18 16:00 250 19 10.8 5.9 4.3
2020-Feb-18 15:00 250 18 10.8 5.7 4.5
2020-Feb-18 14:00 250 24 10.8 5.5 4.1
2020-Feb-18 13:00 250 19 10.8 5.9 4.2
2020-Feb-18 12:00 250 19 10.8 6.1 4.2
2020-Feb-18 11:00 250 20 10.8 5.5 4.2
2020-Feb-18 10:00 260 20 10.8 6.2 4.1
2020-Feb-18 09:00 250 22 10.8 6.5 4.2
2020-Feb-18 08:00 250 21 10.8 6.7 4.5
2020-Feb-18 07:00 250 20 5.4 7.1 4.5
2020-Feb-18 06:00 260 20 10.8 6.4 4.4
2020-Feb-18 05:00 270 26 10.8 5.9 4.3
2020-Feb-18 04:00 260 21 10.8 6.0 4.3
2020-Feb-18 03:00 250 25 10.8 5.7 4.5
2020-Feb-18 02:00 260 26 10.8 6.8 4.6
2020-Feb-18 01:00 260 21 10.8 7.2 4.6
2020-Feb-18 00:00 250 22 10.8 7.3 4.4
2020-Feb-17 23:00 250 21 5.4 7.0 4.9
2020-Feb-17 22:00 250 24 10.8 7.2 4.5
2020-Feb-17 21:00 260 15 10.8 5.9 5.0
2020-Feb-17 20:00 250 20 10.8 7.0 4.8
2020-Feb-17 19:00 250 19 10.8 6.4 5.3
2020-Feb-17 18:00 250 18 10.8 7.0 5.4
2020-Feb-17 17:00 260 20 10.8 7.5 6.0
2020-Feb-17 16:00 260 22 27.0 7.6 6.2
2020-Feb-17 15:00 270 18 10.8 7.4 6.0
2020-Feb-17 14:00 280 19 10.8 7.3 6.2
2020-Feb-17 12:00 280 20 10.8 7.7 6.6
2020-Feb-17 11:00 280 27 10.8 7.1 6.3
2020-Feb-17 10:00 280 20 5.4 7.6 7.1
2020-Feb-17 09:00 260 27 2.2 7.7 6.6
2020-Feb-17 08:00 200 32 1.1 7.0 6.8
2020-Feb-17 07:00 200 34 2.2 7.0 6.2
2020-Feb-17 06:00 210 38 2.2 7.0 6.4
2020-Feb-17 05:00 210 33 2.2 7.1 6.7
2020-Feb-17 04:00 210 34 2.2 7.0 6.1
2020-Feb-17 03:00 220 33 5.4 6.8 6.7
2020-Feb-17 02:00 220 29 5.4 7.2 6.1
2020-Feb-17 01:00 220 31 2.2 6.8 6.3
2020-Feb-17 00:00 210 31 10.8 5.8 6.8